Regional Weather Roundup
Issued by NWS Sterling, VA

Home | Current Version | Previous Version | Graphics & Text | Print | Product List | Glossary On
Versions: 1 2 3 4 5 6 7 8 9 10 11 12 13 14 15 16 17 18 19 20 21 22 23 24 25 26 27 28 29 30 31 32 33 34 35 36 37 38 39 40 41 42 43 44 45 46 47 48 49 50
000
ASUS41 KLWX 301110
RWRLWX

REGIONAL WEATHER ROUNDUP
NATIONAL WEATHER SERVICE BALTIMORE MD/WASHINGTON DC
700 AM EDT SUN AUG 30 2015

Note: "FAIR" indicates few or no clouds below 12,000 feet
with no significant weather and/or obstructions to visibility.
 TC=TEMPERATURE CELSIUS

 * =Non NWS site. Station does not report precipitation (e.g. rain,
    snow, etc.), thunder, or fog.

DCZ001-MDZ009-015-VAZ040>042-051-053>054-301200-
WASHINGTON METRO

CITY           SKY/WX    TMP DP  RH WIND       PRES   REMARKS
WASHINGTON NAT MOCLDY    69  64  84 S5        30.12R
DULLES         MOCLDY    65  62  90 S3        30.12R
ANDREWS AFB    CLEAR     67  62  82 SW6       30.11R
FT BELVOIR     PTCLDY    63  61  94 VRB1      30.12R
QUANTICO       PTCLDY    69  62  78 CALM      30.13R
COLLEGE PARK*  CLEAR     66  64  94 CALM      30.11R
LEESBURG*      CLEAR     64  64 100 CALM      30.13R FOG
MANASSAS*      CLEAR     63  63 100 CALM      30.12R
GAITHERSBURG*  CLEAR     64  61  88 CALM      30.16R

$$

MDZ006>007-011-014-301200-
BALTIMORE METRO

CITY           SKY/WX    TMP DP  RH WIND       PRES   REMARKS
BWI AIRPORT    MOCLDY    65  63  93 CALM      30.11R
MD SCIENCE CTR   N/A     70  64  81 MISG      30.12R
ANNAPOLIS      CLEAR     68  62  81 S3        30.11R
FORT MEADE*    CLEAR     59  57  94 CALM      30.14R

$$

MDZ012-015-019>023-301200-
MARYLAND EASTERN SHORE

CITY           SKY/WX    TMP DP  RH WIND       PRES   REMARKS
OCEAN CITY     PTCLDY    65  62  90 CALM      30.13R
SALISBURY      PTCLDY    62  60  93 CALM      30.13R
BAY BRIDGE AP*   N/A     72  61  68 SW3       30.12R
CAMBRIDGE*     CLEAR     63  61  94 CALM      30.12R

$$

MDZ017>025-301200-
SOUTHERN MARYLAND

CITY           SKY/WX    TMP DP  RH WIND       PRES   REMARKS
PATUXENT RIVER PTCLDY    65  62  90 CALM      30.12R
ST INIGOES     MOCLDY    69  64  84 SW7       30.12R
LEONARDTOWN*   MOCLDY    64  61  88 CALM      30.14R

$$

MDZ003>005-301200-
NORTH CENTRAL MARYLAND

CITY           SKY/WX    TMP DP  RH WIND       PRES   REMARKS
FREDERICK*     CLEAR     64  64 100 S3        30.14R
HAGERSTOWN APT CLEAR     68  62  81 CALM      30.12R
WESTMINSTER*   CLEAR     66  63  88 S3        30.12R

$$

MDZ501>502-301200-
WESTERN MARYLAND

CITY           SKY/WX    TMP DP  RH WIND       PRES   REMARKS
OAKLAND*       PTCLDY    61  57  88 SW6       30.23R
CUMBERLAND*    CLEAR     61  61 100 N3        30.18R

$$

VAZ025>031-301200-
SHENANDOAH VALLEY

CITY           SKY/WX    TMP DP  RH WIND       PRES   REMARKS
WINCHESTER*    CLEAR     68  61  77 W3        30.13R
FRONT ROYAL*   FAIR      66  61  82 S7        30.12R
LURAY*         FAIR      61  61 100 CALM      30.15R
NEW MARKET*    FAIR      61  60  97 CALM      30.15R
STAUNTON*      CLOUDY    66  62  87 CALM      30.19R
WAYNESBORO*    FAIR      65  61  86 MISG      30.18R

$$

WVZ021-048>050-054>055-301200-
EASTERN WEST VIRGINIA PANHANDLE

CITY           SKY/WX    TMP DP  RH WIND       PRES   REMARKS
MARTINSBURG    CLEAR     61  60  97 CALM      30.13R FOG
PETERSBURG*    PTCLDY    57  57  98 CALM      30.17S FOG

$$

VAZ036>039-050-301200-
CENTRAL FOOTHILLS

CITY           SKY/WX    TMP DP  RH WIND       PRES   REMARKS
CHARLOTTESVILL CLOUDY    66  63  90 S3        30.14R
CULPEPER*      PTCLDY    61  61 100 CALM      30.13R FOG
ORANGE*        MOCLDY    64  63  94 S5        30.14S
GORDONSVILLE*  FAIR      65  63  93 CALM      30.13R
WARRENTON*       N/A     62  62 100 CALM      30.12R FOG

$$

VAZ055>057-301200-
NORTH AND CENTRAL PIEDMONT

CITY           SKY/WX    TMP DP  RH WIND       PRES   REMARKS
FREDERICKSBRG* PTCLDY    69  64  83 CALM      30.12R
STAFFORD*      PTCLDY    62  60  93 CALM      30.16R

$$

NCZ024-NYZ072-PAZ021-071-VAZ022-071-301200-
OTHER REGIONAL OBSERVATIONS

CITY           SKY/WX    TMP DP  RH WIND       PRES   REMARKS
NEW YORK CITY  CLEAR     72  61  68 VRB5      30.13R
PHILADELPHIA   PTCLDY    70  63  78 S7        30.11S
PITTSBURGH     LGT RAIN  67  65  93 CALM      30.13R
ROANOKE        CLOUDY    68  62  81 CALM      30.19R
RICHMOND       CLOUDY    68  62  81 CALM      30.14R
RALEIGH        MOCLDY    64  61  90 CALM      30.16R

$$

ANZ530>537-301200-
MARINE OBSERVATIONS

STATION/POSITION TIME  TEMP    WIND        PRES
                       AIR SEA DIR/SP/G
                 (UTC) (F)     (DEG/KT/KT) (MB)
THOMAS PT LIGHT  1000   71     230/  7     1019.9R

$$




USA.gov is the U.S. government's official web portal to all federal, state and local government web resources and services.